Regional Weather Roundup
Issued by NWS Cleveland, OH

Home | Current Version | Previous Version | Graphics & Text | Print | Product List | Glossary On
Versions: 1 2 3 4 5 6 7 8 9 10 11 12 13 14 15 16 17 18 19 20 21 22 23 24 25 26 27 28 29 30 31 32 33 34 35 36 37 38 39 40 41 42 43 44 45 46 47 48 49 50
000
ASUS41 KCLE 112100
RWRCLE
OHIO REGIONAL WEATHER ROUNDUP
NATIONAL WEATHER SERVICE WILMINGTON, OH
500 PM EDT FRI JUL 11 2014

NOTE: "FAIR" INDICATES FEW OR NO CLOUDS BELOW 12,000 FEET WITH NO
SIGNIFICANT WEATHER AND/OR OBSTRUCTIONS TO VISIBILITY.

OHZ001>008-015>018-024>027-034-035-043-044-112200-
   NORTHWEST OHIO

CITY           SKY/WX    TMP DP  RH WIND       PRES   REMARKS
DEFIANCE       MOSUNNY   83  56  39 S7        30.17F
FINDLAY        MOSUNNY   82  57  42 S10G20    30.17F
TOLEDO EXPRESS MOSUNNY   81  55  40 VRB5      30.17F
TOLEDO METCALF MOSUNNY   79  56  45 CALM      30.19F
LIMA           MOSUNNY   81  57  43 SW7       30.19F
$$

OHZ009>014-019>023-028>033-038-089-112200-
   NORTHEAST OHIO

CITY           SKY/WX    TMP DP  RH WIND       PRES   REMARKS
CLE-HOPKINS    MOSUNNY   77  56  48 N12       30.21F
CLE-LAKEFRONT  SUNNY     75  62  64 N9        30.18F
CUY CO. ARPT   PTSUNNY   79  57  47 N13       30.21S
LORAIN-ELYRIA  SUNNY     81  56  42 N10       30.20F
ASHTABULA      SUNNY     78  59  51 N6        30.20F
AKRON-CANTON   PTSUNNY   82  55  39 CALM      30.19F
WOOSTER        NOT AVBL
MANSFIELD      MOSUNNY   81  52  36 SW5       30.20F
YOUNGSTOWN     MOSUNNY   82  57  42 CALM      30.19F
$$

OHZ042-051>053-060>062-070>072-077>081-112200-
  SOUTHWEST OHIO

CITY           SKY/WX    TMP DP  RH WIND       PRES   REMARKS
CINC-COVINGTON MOSUNNY   84  55  36 SW6       30.17F
CINC-LUNKEN    MOSUNNY   85  58  39 S3        30.16F
HAMILTON       MOSUNNY   83  60  45 CALM      30.17F
DAYTON         NOT AVBL
WRIGHT-PAT AFB NOT AVBL
DAYTON GENERAL SUNNY     81  59  47 MISG      30.17F
WILMINGTON     MOSUNNY   81  57  43 N3        30.18F
$$

OHZ036-037-039>041-045>050-054>059-063>069-073>076-082>088-112200-
  CENTRAL AND SOUTHEAST OHIO

CITY           SKY/WX    TMP DP  RH WIND       PRES   REMARKS
COLUMBUS       MOSUNNY   86  54  33 E8        30.16F
OSU AIRPORT    MOSUNNY   83  56  39 NW7       30.18F
BOLTON FIELD   SUNNY     82  57  42 CALM      30.19F
RICKENBACK AFB NOT AVBL
NEWARK         SUNNY     82  54  37 MISG      30.18F
MARION         SUNNY     81  53  37 S5        30.19F
LANCASTER      MOSUNNY   83  56  39 VRB5      30.18F
ZANESVILLE     SUNNY     81  55  40 S5        30.19F
NEW PHILLY     SUNNY     82  60  47 VRB3      30.18F
$$



USA.gov is the U.S. government's official web portal to all federal, state and local government web resources and services.